[[{"header":{"parameterUnit":"m.s-1","parameterCategory":1,"la1":30.2992,"la2":30.254,"lo1":-89.0895,"lo2":-89.0443,"dy":0.0025,"dx":0.0025,"nx":19,"ny":19,"refTime":"2026-04-10T09:00:00:Z","depth":0,"parameterNumber":2,"parameterNumberName":"U-component_of_WINDS"},"data":[0,0,0,-2.3146,-2.3149,-2.3236,-2.3236,-2.3379,-2.3381,0,0,0,0,0,0,0,0,0,0,0,-2.3139,-2.3141,-2.3146,-2.3149,-2.3236,-2.3236,-2.3379,-2.3381,0,0,0,0,0,0,0,0,0,0,0,-2.3138,-2.314,-2.3142,-2.3149,-2.3236,-2.3236,-2.3379,-2.3302,0,0,0,0,0,0,0,0,0,0,-2.3212,-2.3223,-2.314,-2.3142,-2.315,-2.3236,-2.3236,-2.3298,-2.3307,-2.3353,0,-2.3398,0,-2.3392,-2.3392,-2.3393,0,0,0,-2.3136,-2.3215,-2.3222,-2.3142,-2.3151,-2.3236,-2.3193,-2.3302,-2.3313,-2.3365,-2.34,-2.3405,-2.3394,-2.3394,-2.3394,-2.3706,-2.3708,0,0,-2.3131,-2.3165,-2.3215,-2.323,-2.3217,-2.319,-2.3196,-2.3308,-2.3349,-2.3401,-2.3408,-2.3397,-2.3395,-2.3396,-2.3704,-2.3707,0,0,0,-2.3126,-2.3162,-2.3165,-2.3225,-2.3238,-2.3193,-2.3199,-2.3344,-2.3342,-2.3409,-2.3399,-2.3396,-2.3398,-2.3702,-2.3705,-2.3844,0,0,0,-2.3122,-2.3159,-2.3164,-2.3186,-2.3236,-2.3292,-2.3233,-2.3334,-2.3346,-2.3398,-2.3396,-2.3399,-2.3699,-2.3703,-2.3835,-2.3905,0,0,0,-2.3127,-2.3159,-2.3178,-2.3187,-2.3226,-2.3289,-2.3293,-2.3336,-2.334,-2.3393,-2.34,-2.3698,-2.3703,-2.3827,-2.3892,-2.4,0,0,0,-2.3142,-2.3299,-2.3181,-2.3352,-2.3226,-2.3373,-2.3292,-2.34,-2.3462,-2.3397,-2.37,-2.3705,-2.3824,-2.3884,-2.3991,-2.4099,-2.4146,0,0,-2.336,-2.3327,-2.3425,-2.3321,-2.3499,-2.3357,-2.3554,-2.3578,-2.3552,-2.3656,-2.3663,-2.3838,-2.3891,-2.3998,-2.4391,-2.4429,0,0,0,-2.3506,-2.3577,-2.3616,-2.3677,-2.3698,-2.3723,-2.3712,-2.3721,-2.3808,-2.3612,-2.3902,-2.3933,-2.3994,-2.4045,-2.4077,-2.4129,-2.3728,-2.3727,-2.3727,-2.3866,-2.3823,-2.3983,-2.3951,-2.401,-2.3997,-2.4042,-2.4052,-2.3991,-2.406,-2.4093,-2.4336,-2.4396,-2.442,-2.4475,-2.4142,-2.4142,-2.4143,-2.4143,-2.4185,-2.4281,-2.4194,-2.432,-2.4274,-2.4378,-2.4372,-2.4325,-2.4417,-2.4308,-2.436,-2.4248,-2.4463,-2.4509,-2.4153,-2.4152,-2.415,-2.4149,-2.4149,-2.442,-2.4459,-2.4465,-2.4548,-2.4616,-2.4576,-2.4669,-2.4622,-2.4579,-2.463,-2.4661,-2.4659,-2.4654,-2.4647,-2.4648,-2.4649,-2.4649,-2.465,-2.4651,-2.4664,-2.4666,-2.475,-2.4785,-2.4818,-2.4855,-2.4842,-2.4873,-2.4896,-2.4855,-2.4855,-2.4791,-2.4489,-2.4418,-2.4664,-2.4661,-2.466,-2.4658,-2.4657,-2.5011,-2.4925,-2.5054,-2.5087,-2.5125,-2.5197,-2.5134,-2.5202,-2.522,-2.5268,-2.519,-2.4974,-2.4937,-2.4912,-2.4852,-2.5196,-2.5196,-2.5196,-2.5196,-2.5214,-2.5189,-2.5311,-2.5367,-2.5416,-2.5372,-2.5522,-2.5513,-2.5491,-2.55,-2.5442,-2.5358,-2.5333,-2.5312,-2.5277,-2.5221,-2.5651,-2.5652,-2.5652,-2.5427,-2.5405,-2.5542,-2.5517,-2.5543,-2.5566,-2.5706,-2.5775,-2.5731,-2.567,-2.5508,-2.5488,-2.5351,-2.5308,-2.5249,-2.5196,-2.5092,0,0]},{"header":{"parameterUnit":"m.s-1","parameterCategory":1,"la1":30.2992,"la2":30.254,"lo1":-89.0895,"lo2":-89.0443,"dy":0.0025,"dx":0.0025,"nx":19,"ny":19,"refTime":"2026-04-10T09:00:00:Z","depth":0,"parameterNumber":3,"parameterNumberName":"V-component_of_WINDS"},"data":[0,0,0,-1.7467,-1.7467,-1.7445,-1.7445,-1.7418,-1.7417,0,0,0,0,0,0,0,0,0,0,0,-1.7475,-1.7475,-1.7467,-1.7467,-1.7445,-1.7445,-1.7418,-1.7417,0,0,0,0,0,0,0,0,0,0,0,-1.7475,-1.7475,-1.7475,-1.7467,-1.7446,-1.7445,-1.7418,-1.7434,0,0,0,0,0,0,0,0,0,0,-1.7454,-1.7463,-1.7475,-1.7475,-1.7467,-1.7446,-1.7445,-1.7434,-1.7433,-1.7428,0,-1.7425,0,-1.7421,-1.7416,-1.7416,0,0,0,-1.7466,-1.7465,-1.7458,-1.7475,-1.7466,-1.7446,-1.7455,-1.7433,-1.7431,-1.7425,-1.7424,-1.7423,-1.742,-1.7416,-1.7415,-1.7392,-1.7391,0,0,-1.7467,-1.7472,-1.7459,-1.7457,-1.7461,-1.7455,-1.7454,-1.7432,-1.7431,-1.7424,-1.7423,-1.742,-1.7415,-1.7415,-1.7392,-1.7392,0,0,0,-1.7471,-1.7473,-1.7466,-1.7458,-1.7454,-1.7455,-1.7453,-1.7432,-1.743,-1.7422,-1.7419,-1.7415,-1.7415,-1.7392,-1.7392,-1.7393,0,0,0,-1.7472,-1.7475,-1.7467,-1.7469,-1.7454,-1.7443,-1.7454,-1.7431,-1.7429,-1.742,-1.7415,-1.7415,-1.7392,-1.7392,-1.7393,-1.7393,0,0,0,-1.7476,-1.7475,-1.7473,-1.747,-1.7461,-1.7443,-1.744,-1.743,-1.7427,-1.7416,-1.7415,-1.7392,-1.7392,-1.7393,-1.7393,-1.7387,0,0,0,-1.7482,-1.7475,-1.7473,-1.7465,-1.7461,-1.7445,-1.744,-1.7427,-1.7418,-1.7415,-1.7392,-1.7392,-1.7393,-1.7393,-1.7387,-1.7382,-1.7381,0,0,-1.7476,-1.7475,-1.747,-1.7467,-1.7452,-1.7448,-1.7433,-1.742,-1.7414,-1.7399,-1.7398,-1.7393,-1.7393,-1.7387,-1.7373,-1.7372,0,0,0,-1.7469,-1.7466,-1.7461,-1.7452,-1.7442,-1.7432,-1.742,-1.7415,-1.7402,-1.7408,-1.739,-1.7389,-1.7385,-1.7383,-1.7382,-1.7377,-1.7391,-1.7391,-1.7391,-1.7469,-1.7462,-1.7452,-1.7441,-1.7432,-1.7419,-1.7411,-1.7401,-1.7397,-1.7392,-1.7388,-1.7381,-1.7378,-1.7377,-1.7372,-1.7385,-1.7385,-1.7385,-1.7385,-1.746,-1.7453,-1.7446,-1.7433,-1.7424,-1.7413,-1.7399,-1.7396,-1.7383,-1.7384,-1.738,-1.7381,-1.7376,-1.7371,-1.7385,-1.7385,-1.7385,-1.7385,-1.7385,-1.7459,-1.7454,-1.7447,-1.7432,-1.7421,-1.741,-1.7397,-1.739,-1.7383,-1.7379,-1.7372,-1.7372,-1.737,-1.7376,-1.7376,-1.7376,-1.7376,-1.7376,-1.7376,-1.746,-1.7452,-1.7443,-1.743,-1.7422,-1.741,-1.7395,-1.7387,-1.7375,-1.737,-1.737,-1.7365,-1.7378,-1.738,-1.7376,-1.7376,-1.7376,-1.7376,-1.7376,-1.7453,-1.7453,-1.7439,-1.7431,-1.7413,-1.74,-1.7391,-1.7373,-1.7365,-1.7358,-1.7353,-1.7364,-1.7362,-1.7362,-1.7364,-1.7356,-1.7356,-1.7356,-1.7356,-1.7451,-1.7449,-1.7431,-1.7418,-1.7405,-1.7394,-1.7375,-1.7362,-1.7348,-1.7342,-1.7342,-1.7344,-1.7345,-1.7342,-1.7344,-1.7345,-1.7332,-1.7332,-1.7332,-1.7445,-1.7441,-1.7428,-1.7415,-1.74,-1.7386,-1.7368,-1.7351,-1.7335,-1.7331,-1.7336,-1.7337,-1.7341,-1.7343,-1.7339,-1.7341,-1.7344,0,0]}]]